[[{"header":{"parameterUnit":"m.s-1","parameterCategory":1,"la1":30.2991,"la2":30.254,"lo1":-89.0895,"lo2":-89.0444,"dy":0.0017,"dx":0.0017,"nx":28,"ny":28,"refTime":"2024-03-07T03:00:00:Z","depth":0,"parameterNumber":2,"parameterNumberName":"U-component_of_WINDS"},"data":[0,0,0,0,0,0,0,0,0,0,0,0,0,0,0,0,0,0,0,0,0,0,0,0,0,0,0,0,0,0,0,0,0,0,0,0,0,0,0,0,0,0,0,0,0,0,0,0,0,0,0,0,0,0,0,0,0,0,-3.3274,-3.3273,0,-3.3174,-3.3173,-3.3172,-3.3077,-3.3076,-3.3075,-3.3074,-3.2971,-3.297,-3.2968,0,0,0,0,0,0,0,0,0,0,0,0,0,-3.3385,-3.3383,-3.3274,-3.3273,-3.3272,-3.3174,-3.3173,-3.3172,-3.3077,-3.3076,-3.3074,-3.3073,-3.2972,-3.297,-3.2968,0,0,0,0,0,0,0,0,0,0,0,0,0,-3.3316,-3.3383,-3.3275,-3.3213,-3.3206,-3.3175,-3.3173,-3.3171,-3.3078,-3.3076,-3.3074,-3.3072,-3.2972,-3.297,-3.2968,-3.2989,0,0,-3.296,-3.2959,0,0,0,0,0,0,0,0,-3.332,-3.3312,-3.3223,-3.3217,-3.321,-3.3136,-3.3174,-3.311,-3.3078,-3.3127,-3.3073,-3.3071,-3.3028,-3.3021,-3.3006,-3.2984,-3.2979,-3.296,-3.2959,-3.2958,-3.2957,0,0,0,0,0,0,0,-3.3325,-3.3316,-3.3235,-3.3222,-3.3214,-3.3191,-3.3179,-3.3162,-3.3088,-3.3122,-3.3115,-3.3105,-3.3024,-3.3008,-3.3003,-3.2978,-3.296,-3.2958,-3.2956,-3.2956,-3.2971,-3.2973,0,0,0,0,0,0,-3.3339,-3.3321,-3.3238,-3.3232,-3.3262,-3.319,-3.3177,-3.3162,-3.3088,-3.3075,-3.3106,-3.31,-3.3013,-3.3006,-3.2999,-3.302,-3.2958,-3.2955,-3.2954,-3.2969,-3.2972,-3.2974,0,0,0,0,0,0,-3.3342,-3.3333,-3.3242,-3.3274,-3.3261,-3.319,-3.3174,-3.3161,-3.3145,-3.3076,-3.3063,-3.3104,-3.3012,-3.3002,-3.2992,-3.3015,-3.2954,-3.2952,-3.2967,-3.297,-3.2973,-3.3063,0,0,0,0,0,0,-3.3346,-3.3334,-3.3341,-3.3275,-3.326,-3.3237,-3.3175,-3.316,-3.3141,-3.3133,-3.3071,-3.3058,-3.3009,-3.2997,-3.299,-3.3011,-3.295,-3.2965,-3.2968,-3.2972,-3.3057,-3.3068,-3.3078,0,0,0,0,0,-3.335,-3.337,-3.3342,-3.3332,-3.3267,-3.3239,-3.323,-3.3173,-3.3144,-3.315,-3.3106,-3.306,-3.3014,-3.2996,-3.2988,-3.3009,-3.2963,-3.2967,-3.2971,-3.3053,-3.3066,-3.3077,0,0,0,0,0,0,-3.3439,-3.336,-3.3328,-3.3327,-3.3291,-3.3223,-3.3229,-3.3188,-3.3159,-3.3152,-3.3083,-3.307,-3.3069,-3.3037,-3.3019,-3.3027,-3.2982,-3.2985,-3.3047,-3.3059,-3.3069,-3.3077,-3.2948,0,0,0,0,0,-3.3459,-3.3443,-3.3374,-3.338,-3.3364,-3.33,-3.3286,-3.3245,-3.3204,-3.3188,-3.3143,-3.3106,-3.3083,-3.3069,-3.3044,-3.3052,-3.3039,-3.3063,-3.3073,-3.3081,-3.3085,-3.309,-3.31,-3.2987,-3.2987,-3.2987,0,0,-3.35,-3.3454,-3.3448,-3.3397,-3.3364,-3.335,-3.3287,-3.3274,-3.3263,-3.3186,-3.3175,-3.3141,-3.3095,-3.3095,-3.3093,-3.3069,-3.3113,-3.3087,-3.3094,-3.3093,-3.3095,-3.3106,-3.3115,-3.299,-3.299,-3.2989,0,0,-3.3566,-3.353,-3.3532,-3.35,-3.3451,-3.3409,-3.341,-3.3349,-3.3324,-3.3311,-3.3254,-3.324,-3.3201,-3.3171,-3.3151,-3.321,-3.3167,-3.3203,-3.3256,-3.3262,-3.327,-3.3278,-3.3301,-3.3309,-3.3207,-3.3207,-3.3207,0,-3.3623,-3.3599,-3.3538,-3.3529,-3.3509,-3.344,-3.3442,-3.3415,-3.336,-3.3348,-3.3322,-3.3274,-3.3238,-3.3231,-3.3246,-3.3231,-3.3231,-3.321,-3.3274,-3.3281,-3.3287,-3.3308,-3.3317,-3.3212,-3.3211,-3.3211,-3.321,0,-3.3671,-3.3656,-3.3663,-3.3614,-3.3595,-3.3592,-3.3531,-3.352,-3.3482,-3.3443,-3.3432,-3.3387,-3.3352,-3.3347,-3.3309,-3.3336,-3.3323,-3.3287,-3.3241,-3.3304,-3.3322,-3.333,-3.3219,-3.3217,-3.3216,-3.3214,0,0,-3.379,-3.3709,-3.3713,-3.3691,-3.3633,-3.362,-3.3614,-3.3581,-3.3573,-3.3538,-3.3533,-3.3503,-3.347,-3.3447,-3.3405,-3.341,-3.3462,-3.3372,-3.337,-3.3392,-3.3491,-3.352,-3.353,-3.3433,-3.3434,-3.3435,-3.3496,0,-3.3848,-3.3835,-3.3781,-3.3784,-3.377,-3.3705,-3.37,-3.3665,-3.3629,-3.3612,-3.3572,-3.3553,-3.3509,-3.3496,-3.3497,-3.3455,-3.3481,-3.345,-3.3429,-3.3429,-3.3444,-3.3539,-3.3569,-3.3628,-3.3502,-3.3503,-3.3504,0,-3.3914,-3.3885,-3.3887,-3.3831,-3.3823,-3.382,-3.3787,-3.3771,-3.3731,-3.3704,-3.3681,-3.3635,-3.3627,-3.3584,-3.3573,-3.3553,-3.3541,-3.352,-3.3521,-3.3517,-3.3471,-3.354,-3.3645,-3.3655,-3.3515,-3.3514,-3.3513,0,-3.4003,-3.3964,-3.3961,-3.3943,-3.3878,-3.3878,-3.3851,-3.3808,-3.3793,-3.3764,-3.3753,-3.3724,-3.3708,-3.3686,-3.3634,-3.3608,-3.363,-3.3582,-3.3609,-3.3611,-3.3617,-3.3618,-3.3724,-3.3608,-3.3608,-3.3608,-3.3607,0,-3.4074,-3.4078,-3.4,-3.3998,-3.4001,-3.394,-3.3945,-3.3912,-3.3875,-3.3867,-3.3808,-3.3801,-3.3732,-3.3718,-3.3677,-3.3675,-3.3668,-3.3648,-3.3637,-3.3653,-3.3656,-3.3645,-3.364,-3.361,-3.3609,-3.3609,-3.3609,0,-3.4174,-3.4122,-3.4114,-3.4054,-3.4039,-3.4044,-3.3993,-3.3989,-3.3951,-3.3941,-3.3935,-3.3874,-3.3854,-3.38,-3.3766,-3.3739,-3.3749,-3.3728,-3.3763,-3.3757,-3.3787,-3.3786,-3.3891,-3.3902,-3.3779,-3.378,-3.3781,0,-3.4223,-3.4225,-3.4166,-3.4156,-3.4132,-3.4116,-3.4101,-3.4041,-3.4028,-3.3983,-3.3985,-3.3961,-3.3938,-3.391,-3.3863,-3.3838,-3.3817,-3.3855,-3.3812,-3.383,-3.3819,-3.382,-3.3821,-3.3865,-3.3867,-3.3868,-3.3869,0,-3.4316,-3.4291,-3.4271,-3.4243,-3.4226,-3.4201,-3.4172,-3.4167,-3.4101,-3.4089,-3.4068,-3.4051,-3.4017,-3.3995,-3.3962,-3.3935,-3.3892,-3.3883,-3.3888,-3.3906,-3.3927,-3.3918,-3.3791,-3.3881,-3.388,-3.3879,-3.3878,-3.3878,-3.4393,-3.4393,-3.4352,-3.4332,-3.4305,-3.428,-3.4274,-3.4236,-3.4218,-3.4186,-3.4152,-3.4136,-3.4098,-3.405,-3.4026,-3.4013,-3.399,-3.3997,-3.3999,-3.4002,-3.401,-3.3928,-3.4006,-3.4006,-3.4006,-3.4005,-3.4005,0,-3.4485,-3.4456,-3.4438,-3.4401,-3.4386,-3.4347,-3.4314,-3.4305,-3.4291,-3.4259,-3.4239,-3.4217,-3.4195,-3.4148,-3.4122,-3.4121,-3.4101,-3.4116,-3.4116,-3.4111,-3.4031,-3.403,-3.4133,-3.4133,-3.4133,-3.4133,-3.4133,-3.4133,-3.4531,-3.4529,-3.45,-3.4485,-3.4455,-3.444,-3.4425,-3.4402,-3.4376,-3.4354,-3.4337,-3.4306,-3.4268,-3.424,-3.4219,-3.4205,-3.4199,-3.4222,-3.4202,-3.4129,-3.4117,-3.4105,-3.4104,-3.422,-3.4221,-3.4283,-3.4284,-3.4284]},{"header":{"parameterUnit":"m.s-1","parameterCategory":1,"la1":30.2991,"la2":30.254,"lo1":-89.0895,"lo2":-89.0444,"dy":0.0017,"dx":0.0017,"nx":28,"ny":28,"refTime":"2024-03-07T03:00:00:Z","depth":0,"parameterNumber":3,"parameterNumberName":"V-component_of_WINDS"},"data":[0,0,0,0,0,0,0,0,0,0,0,0,0,0,0,0,0,0,0,0,0,0,0,0,0,0,0,0,0,0,0,0,0,0,0,0,0,0,0,0,0,0,0,0,0,0,0,0,0,0,0,0,0,0,0,0,0,0,1.7476,1.7476,0,1.7476,1.7476,1.7476,1.7534,1.7535,1.7537,1.7538,1.7533,1.7531,1.753,0,0,0,0,0,0,0,0,0,0,0,0,0,1.7522,1.7521,1.7476,1.7476,1.7476,1.7476,1.7476,1.7476,1.7533,1.7535,1.7537,1.7539,1.7533,1.7532,1.753,0,0,0,0,0,0,0,0,0,0,0,0,0,1.751,1.752,1.7476,1.7505,1.7507,1.7476,1.7476,1.7476,1.7533,1.7535,1.7537,1.754,1.7534,1.7532,1.7529,1.7469,0,0,1.7522,1.7521,0,0,0,0,0,0,0,0,1.751,1.7508,1.75,1.7503,1.7505,1.7507,1.749,1.7473,1.7532,1.7523,1.7538,1.7541,1.7522,1.7521,1.7516,1.7469,1.7468,1.7522,1.7521,1.752,1.7519,0,0,0,0,0,0,0,1.7511,1.7508,1.7476,1.75,1.7503,1.7516,1.7517,1.7487,1.7509,1.7524,1.7528,1.7528,1.7524,1.7518,1.7516,1.7468,1.7522,1.752,1.7519,1.7518,1.7373,1.7371,0,0,0,0,0,0,1.7509,1.7509,1.7476,1.7476,1.7514,1.7514,1.7515,1.7504,1.751,1.7513,1.7526,1.753,1.7521,1.7519,1.7516,1.7447,1.752,1.7517,1.7516,1.7375,1.7373,1.737,0,0,0,0,0,0,1.7509,1.7505,1.7476,1.7493,1.7491,1.751,1.7498,1.7503,1.7497,1.7511,1.7515,1.7516,1.7522,1.7519,1.7481,1.7447,1.7516,1.7514,1.7378,1.7375,1.7371,1.7306,0,0,0,0,0,0,1.751,1.7505,1.7483,1.7492,1.7489,1.7441,1.7496,1.7501,1.7493,1.7499,1.7503,1.7506,1.7524,1.7484,1.7479,1.7445,1.7512,1.7381,1.7377,1.7372,1.7312,1.7301,1.7292,0,0,0,0,0,1.7512,1.7463,1.7482,1.7477,1.7463,1.7439,1.7437,1.7461,1.749,1.7468,1.7478,1.7506,1.7452,1.748,1.7474,1.7439,1.7384,1.7378,1.7373,1.7316,1.7303,1.7292,0,0,0,0,0,0,1.7447,1.7465,1.7485,1.7439,1.7437,1.7449,1.7421,1.7446,1.7435,1.7441,1.7469,1.7469,1.7427,1.7429,1.746,1.7382,1.7423,1.7416,1.7382,1.7369,1.736,1.736,1.751,0,0,0,0,0,1.7428,1.7409,1.7425,1.7382,1.7381,1.7401,1.7392,1.741,1.7409,1.7408,1.7415,1.7412,1.7394,1.7382,1.7367,1.7312,1.7314,1.7286,1.7276,1.7268,1.7261,1.7234,1.7222,1.7352,1.7352,1.7352,0,0,1.7386,1.7394,1.738,1.7369,1.737,1.7349,1.74,1.7375,1.7359,1.7404,1.7369,1.7374,1.7372,1.7326,1.7305,1.7326,1.7226,1.7261,1.7254,1.7252,1.7227,1.7215,1.7204,1.7348,1.7349,1.7349,0,0,1.7301,1.7305,1.7271,1.7271,1.7273,1.7288,1.7279,1.7288,1.7293,1.7259,1.7293,1.7274,1.7243,1.7241,1.7235,1.7151,1.7177,1.7145,1.7093,1.7066,1.7056,1.7047,1.7018,1.7007,1.7139,1.7139,1.7139,0,1.7249,1.7221,1.7249,1.7223,1.7217,1.7259,1.7224,1.7223,1.7218,1.7213,1.7237,1.7201,1.7202,1.7156,1.7136,1.713,1.7121,1.7145,1.7056,1.7047,1.7039,1.7011,1.7,1.7135,1.7135,1.7136,1.7136,0,1.7157,1.7137,1.7108,1.7106,1.7097,1.7066,1.7089,1.7076,1.7096,1.7108,1.7072,1.7076,1.7063,1.7053,1.7071,1.701,1.7024,1.7051,1.7093,1.7022,1.6997,1.6986,1.713,1.7131,1.7132,1.7133,0,0,1.703,1.7045,1.7034,1.7035,1.7041,1.7024,1.6996,1.6985,1.6974,1.697,1.6946,1.692,1.6946,1.694,1.6958,1.6934,1.6868,1.6965,1.6965,1.6947,1.6802,1.6782,1.6769,1.6886,1.6884,1.6882,1.6803,0,1.6948,1.6901,1.6927,1.6876,1.6857,1.6898,1.6873,1.6873,1.6883,1.6868,1.6879,1.6861,1.6896,1.6893,1.6871,1.6881,1.684,1.6887,1.6863,1.6862,1.6863,1.6756,1.6733,1.6658,1.6793,1.6791,1.679,0,1.6845,1.684,1.6788,1.6799,1.6792,1.6769,1.6762,1.6748,1.6749,1.6758,1.6753,1.6777,1.6749,1.6791,1.6752,1.6784,1.6776,1.6779,1.6777,1.6775,1.6822,1.6751,1.6635,1.6623,1.6774,1.6776,1.6777,0,1.6758,1.6738,1.6704,1.6703,1.6715,1.6698,1.6702,1.6706,1.6698,1.6692,1.6687,1.6676,1.667,1.6661,1.6681,1.671,1.664,1.6683,1.6646,1.6646,1.6629,1.663,1.651,1.6624,1.6624,1.6624,1.6624,0,1.6664,1.6631,1.6666,1.6645,1.6609,1.6639,1.6602,1.661,1.6613,1.6594,1.6628,1.6609,1.6638,1.6621,1.6637,1.6603,1.66,1.6606,1.6611,1.6603,1.6602,1.6598,1.6604,1.6621,1.6622,1.6622,1.6623,0,1.656,1.6583,1.6549,1.6564,1.6567,1.654,1.6552,1.6534,1.6547,1.6523,1.6519,1.6539,1.6522,1.6542,1.6526,1.6536,1.6491,1.6503,1.6491,1.6494,1.6456,1.646,1.6329,1.6313,1.6437,1.6436,1.6435,0,1.6499,1.6475,1.6488,1.6479,1.6482,1.6466,1.6459,1.6487,1.6478,1.6479,1.646,1.6447,1.6437,1.6408,1.642,1.6408,1.642,1.6376,1.6419,1.6412,1.642,1.6422,1.642,1.6366,1.6365,1.6364,1.6363,0,1.6387,1.64,1.639,1.6384,1.6375,1.6371,1.6369,1.636,1.6389,1.6377,1.6362,1.6354,1.634,1.6325,1.6317,1.632,1.6346,1.6349,1.634,1.6332,1.6327,1.633,1.6467,1.6352,1.6353,1.6354,1.6355,1.6355,1.6303,1.6284,1.6291,1.6279,1.6281,1.6279,1.6263,1.6276,1.6263,1.6255,1.6272,1.6252,1.6255,1.6247,1.6247,1.6231,1.625,1.6237,1.6234,1.623,1.6224,1.6329,1.623,1.623,1.623,1.6231,1.6231,0,1.6194,1.6201,1.619,1.6188,1.6178,1.6206,1.6206,1.6195,1.6178,1.6179,1.617,1.6152,1.6139,1.6151,1.6141,1.6126,1.6137,1.6122,1.6123,1.6123,1.6208,1.6217,1.6113,1.6113,1.6113,1.6113,1.6113,1.6113,1.6136,1.6106,1.612,1.6091,1.6098,1.608,1.6078,1.6076,1.6077,1.6057,1.6047,1.6056,1.6062,1.6052,1.6041,1.6045,1.6039,1.602,1.6028,1.6106,1.6117,1.6128,1.6137,1.6018,1.6018,1.5945,1.5944,1.5944]}]]